STARLINK-36354

Last updated on Sun Mar 15 2026 00:02:06 GMT+0000 (Coordinated Universal Time)

1 67800U 26032D 26073.50891727 .00202009 00000+0 13210-2 0 9992 2 67800 97.2844 260.2607 0001810 44.8478 315.2933 15.75231538 5545
UTC large
Height (km)
Speed (km/s)
/
Latitude / Longitude
Inclination (degrees)
Orbital Period (minutes)
Azimuth
Elevation
Range (km)
Doppler Factor

Next 0 passes for location: London (51.5072 / 0.1276)

Sorry there are no passes over London.